"Period start","avg(HW err(1)/warn(2) (#))","avg(Visibility (m))","avg(Weather code (#))","avg(Precip intensity (mm/h))","min(HW err(1)/warn(2) (#))","max(HW err(1)/warn(2) (#))","std(HW err(1)/warn(2) (#))","med(HW err(1)/warn(2) (#))","min(Visibility (m))","max(Visibility (m))","std(Visibility (m))","med(Visibility (m))","min(Weather code (#))","max(Weather code (#))","std(Weather code (#))","med(Weather code (#))","min(Precip intensity (mm/h))","max(Precip intensity (mm/h))","std(Precip intensity (mm/h))","med(Precip intensity (mm/h))"
2013-08-16 00:00:00,2,7388,10,0.00,2,2,0,2,5612,9805,1376,7232,10,10,0,10,0.00,0.00,0.00,0.00
2013-08-16 00:10:00,2,6323,10,0.00,2,2,0,2,2962,10299,2141,6168,10,10,0,10,0.00,0.00,0.00,0.00
2013-08-16 00:20:00,2,11098,10,0.00,2,2,0,2,6572,21626,4464,9083,10,10,0,10,0.00,0.00,0.00,0.00
2013-08-16 00:30:00,2,17055,4,0.00,2,2,0,2,7478,27112,6406,16448,0,10,5,0,0.00,0.00,0.00,0.00
2013-08-16 00:40:00,2,31209,0,0.00,2,2,0,2,22383,39110,5267,32652,0,0,0,0,0.00,0.00,0.00,0.00
2013-08-16 00:50:00,2,46165,0,0.00,2,2,0,2,37514,50000,4541,48962,0,0,0,0,0.00,0.00,0.00,0.00
2013-08-16 01:00:00,2,40124,0,0.00,2,2,0,2,19574,50000,10455,42692,0,0,0,0,0.00,0.00,0.00,0.00
2013-08-16 01:10:00,2,46565,0,0.00,2,2,0,2,39234,50000,3860,48428,0,0,0,0,0.00,0.00,0.00,0.00
2013-08-16 01:20:00,2,48838,0,0.00,2,2,0,2,44379,50000,1729,49768,0,0,0,0,0.00,0.00,0.00,0.00
2013-08-16 01:30:00,2,45241,0,0.00,2,2,0,2,36924,50000,4655,46587,0,0,0,0,0.00,0.00,0.00,0.00
2013-08-16 01:40:00,2,46208,0,0.00,2,2,0,2,21475,50000,8627,50000,0,0,0,0,0.00,0.00,0.00,0.00
2013-08-16 01:50:00,2,46299,0,0.00,0,2,1,2,38926,50000,3664,46801,0,0,0,0,0.00,0.00,0.00,0.00
2013-08-16 02:00:00,2,49044,0,0.00,2,2,0,2,44910,50000,1669,50000,0,0,0,0,0.00,0.00,0.00,0.00
2013-08-16 02:10:00,2,48681,0,0.00,2,2,0,2,44789,50000,1624,49108,0,0,0,0,0.00,0.00,0.00,0.00
2013-08-16 02:20:00,2,48560,0,0.00,2,2,0,2,39886,50000,2958,49879,0,0,0,0,0.00,0.00,0.00,0.00
2013-08-16 02:30:00,2,49414,0,0.00,2,2,0,2,44597,50000,1608,50000,0,0,0,0,0.00,0.00,0.00,0.00
2013-08-16 02:40:00,1,42381,0,0.00,0,2,1,2,24294,50000,8487,46912,0,0,0,0,0.00,0.00,0.00,0.00
2013-08-16 02:50:00,1,48682,0,0.00,0,2,1,0,43572,50000,2499,50000,0,0,0,0,0.00,0.00,0.00,0.00
2013-08-16 03:00:00,2,49790,0,0.00,2,2,0,2,49180,50000,326,50000,0,0,0,0,0.00,0.00,0.00,0.00
2013-08-16 03:10:00,2,48646,0,0.00,2,2,0,2,45977,50000,1646,49807,0,0,0,0,0.00,0.00,0.00,0.00
2013-08-16 03:20:00,2,47314,0,0.00,2,2,0,2,43266,50000,2441,47808,0,0,0,0,0.00,0.00,0.00,0.00
2013-08-16 03:30:00,2,43366,0,0.00,2,2,0,2,37277,48953,3016,43392,0,0,0,0,0.00,0.00,0.00,0.00
2013-08-16 03:40:00,2,47298,0,0.00,2,2,0,2,42006,50000,2953,48600,0,0,0,0,0.00,0.00,0.00,0.00
2013-08-16 03:50:00,2,49384,0,0.00,2,2,0,2,46373,50000,1122,50000,0,0,0,0,0.00,0.00,0.00,0.00
2013-08-16 04:00:00,2,48898,0,0.00,2,2,0,2,42596,50000,2232,50000,0,0,0,0,0.00,0.00,0.00,0.00
2013-08-16 04:10:00,2,48632,0,0.00,2,2,0,2,41922,50000,2392,49886,0,0,0,0,0.00,0.00,0.00,0.00
2013-08-16 04:20:00,2,46546,0,0.00,2,2,0,2,40707,50000,3757,48322,0,0,0,0,0.00,0.00,0.00,0.00
2013-08-16 04:30:00,2,48122,0,0.00,2,2,0,2,42109,50000,2319,48841,0,0,0,0,0.00,0.00,0.00,0.00
2013-08-16 04:40:00,2,46090,0,0.00,2,2,0,2,41473,50000,3170,46292,0,0,0,0,0.00,0.00,0.00,0.00
2013-08-16 04:50:00,2,46828,0,0.00,2,2,0,2,39896,50000,3525,48938,0,0,0,0,0.00,0.00,0.00,0.00
2013-08-16 05:00:00,2,46470,0,0.00,2,2,0,2,35918,50000,4675,49086,0,0,0,0,0.00,0.00,0.00,0.00
2013-08-16 05:10:00,2,48724,0,0.00,2,2,0,2,44751,50000,1670,49650,0,0,0,0,0.00,0.00,0.00,0.00
2013-08-16 05:20:00,2,46791,0,0.00,2,2,0,2,38858,50000,3289,47149,0,0,0,0,0.00,0.00,0.00,0.00
2013-08-16 05:30:00,2,47819,0,0.00,2,2,0,2,42794,50000,2566,48986,0,0,0,0,0.00,0.00,0.00,0.00
2013-08-16 05:40:00,2,49821,0,0.00,2,2,0,2,49035,50000,314,50000,0,0,0,0,0.00,0.00,0.00,0.00
2013-08-16 05:50:00,2,48628,0,0.00,2,2,0,2,43585,50000,2337,50000,0,0,0,0,0.00,0.00,0.00,0.00
2013-08-16 06:00:00,2,49221,0,0.00,2,2,0,2,45372,50000,1593,50000,0,0,0,0,0.00,0.00,0.00,0.00
2013-08-16 06:10:00,2,49233,0,0.00,2,2,0,2,46442,50000,1269,49990,0,0,0,0,0.00,0.00,0.00,0.00
2013-08-16 06:20:00,2,49981,0,0.00,2,2,0,2,49810,50000,57,50000,0,0,0,0,0.00,0.00,0.00,0.00
2013-08-16 06:30:00,2,49984,0,0.00,2,2,0,2,49842,50000,47,50000,0,0,0,0,0.00,0.00,0.00,0.00
2013-08-16 06:40:00,2,49906,0,0.00,2,2,0,2,49273,50000,221,50000,0,0,0,0,0.00,0.00,0.00,0.00
2013-08-16 06:50:00,2,48002,0,0.00,2,2,0,2,42367,50000,2398,48958,0,0,0,0,0.00,0.00,0.00,0.00
2013-08-16 07:00:00,2,49315,0,0.00,2,2,0,2,45570,50000,1320,50000,0,0,0,0,0.00,0.00,0.00,0.00
2013-08-16 07:10:00,2,49388,0,0.00,2,2,0,2,47027,50000,1018,50000,0,0,0,0,0.00,0.00,0.00,0.00
2013-08-16 07:20:00,2,49982,0,0.00,2,2,0,2,49885,50000,37,50000,0,0,0,0,0.00,0.00,0.00,0.00
2013-08-16 07:30:00,2,49934,0,0.00,2,2,0,2,49335,50000,200,50000,0,0,0,0,0.00,0.00,0.00,0.00
2013-08-16 07:40:00,2,49284,0,0.00,2,2,0,2,44865,50000,1592,50000,0,0,0,0,0.00,0.00,0.00,0.00
2013-08-16 07:50:00,2,49762,0,0.00,2,2,0,2,48404,50000,501,50000,0,0,0,0,0.00,0.00,0.00,0.00
2013-08-16 08:00:00,2,49989,0,0.00,2,2,0,2,49894,50000,32,50000,0,0,0,0,0.00,0.00,0.00,0.00
2013-08-16 08:10:00,2,48532,0,0.00,2,2,0,2,37486,50000,3738,50000,0,0,0,0,0.00,0.00,0.00,0.00
2013-08-16 08:20:00,2,49664,0,0.00,2,2,0,2,47045,50000,881,50000,0,0,0,0,0.00,0.00,0.00,0.00
2013-08-16 08:30:00,2,50000,0,0.00,2,2,0,2,50000,50000,0,50000,0,0,0,0,0.00,0.00,0.00,0.00
2013-08-16 08:40:00,2,50000,0,0.00,2,2,0,2,50000,50000,0,50000,0,0,0,0,0.00,0.00,0.00,0.00
2013-08-16 08:50:00,2,49961,0,0.00,0,2,1,2,49611,50000,117,50000,0,0,0,0,0.00,0.00,0.00,0.00
2013-08-16 09:00:00,2,50000,0,0.00,0,2,1,2,50000,50000,0,50000,0,0,0,0,0.00,0.00,0.00,0.00
2013-08-16 09:10:00,2,50000,0,0.00,2,2,0,2,50000,50000,0,50000,0,0,0,0,0.00,0.00,0.00,0.00
2013-08-16 09:20:00,2,49906,0,0.00,0,2,1,2,49063,50000,281,50000,0,0,0,0,0.00,0.00,0.00,0.00
2013-08-16 09:30:00,2,49349,0,0.00,0,2,1,2,45602,50000,1399,50000,0,0,0,0,0.00,0.00,0.00,0.00
2013-08-16 09:40:00,0,50000,0,0.00,0,2,1,0,50000,50000,0,50000,0,0,0,0,0.00,0.00,0.00,0.00
2013-08-16 09:50:00,0,50000,0,0.00,0,0,0,0,50000,50000,0,50000,0,0,0,0,0.00,0.00,0.00,0.00
2013-08-16 10:00:00,0,50000,0,0.00,0,0,0,0,50000,50000,0,50000,0,0,0,0,0.00,0.00,0.00,0.00
2013-08-16 10:10:00,0,50000,0,0.00,0,0,0,0,50000,50000,0,50000,0,0,0,0,0.00,0.00,0.00,0.00
2013-08-16 10:20:00,1,49540,0,0.00,0,2,1,0,47191,50000,948,50000,0,0,0,0,0.00,0.00,0.00,0.00
2013-08-16 10:30:00,2,48881,0,0.00,0,2,1,2,44993,50000,1830,49776,0,0,0,0,0.00,0.00,0.00,0.00
2013-08-16 10:40:00,2,31646,0,0.00,2,2,0,2,16522,50000,14554,23544,0,0,0,0,0.00,0.00,0.00,0.00
2013-08-16 10:50:00,2,17381,0,0.00,2,2,0,2,9413,30034,6848,15448,0,0,0,0,0.00,0.00,0.00,0.00
2013-08-16 11:00:00,2,16552,0,0.00,2,2,0,2,10265,27467,5254,16482,0,0,0,0,0.00,0.00,0.00,0.00
2013-08-16 11:10:00,2,13722,0,0.00,2,2,0,2,8399,28321,5908,11632,0,0,0,0,0.00,0.00,0.00,0.00
2013-08-16 11:20:00,2,20222,0,0.00,2,2,0,2,9819,31124,6970,19848,0,0,0,0,0.00,0.00,0.00,0.00
2013-08-16 11:30:00,2,27256,0,0.00,2,2,0,2,10551,50000,13135,25847,0,0,0,0,0.00,0.00,0.00,0.00
2013-08-16 11:40:00,2,37210,0,0.00,2,2,0,2,23594,50000,9552,38770,0,0,0,0,0.00,0.00,0.00,0.00
2013-08-16 11:50:00,2,35636,0,0.00,2,2,0,2,10350,50000,13133,39440,0,0,0,0,0.00,0.00,0.00,0.00
2013-08-16 12:00:00,2,10136,0,0.00,2,2,0,2,7515,14828,1961,9844,0,0,0,0,0.00,0.00,0.00,0.00
2013-08-16 12:10:00,2,9338,0,0.00,2,2,0,2,6175,11846,1778,9312,0,0,0,0,0.00,0.00,0.00,0.00
2013-08-16 12:20:00,2,9883,0,0.00,2,2,0,2,6951,13586,2179,10316,0,0,0,0,0.00,0.00,0.00,0.00
2013-08-16 12:30:00,2,9778,4,0.00,2,2,0,2,4411,15746,3801,9928,0,10,5,0,0.00,0.00,0.00,0.00
2013-08-16 12:40:00,2,9029,10,0.00,2,2,0,2,3560,18939,4607,8004,10,10,0,10,0.00,0.00,0.00,0.00
2013-08-16 12:50:00,2,9792,10,0.00,2,2,0,2,7362,17743,2949,8730,10,10,0,10,0.00,0.00,0.00,0.00
2013-08-16 13:00:00,2,12536,10,0.00,2,2,0,2,8920,20122,3516,11476,10,10,0,10,0.00,0.00,0.00,0.00
2013-08-16 13:10:00,2,9013,3,0.00,2,2,0,2,5936,19878,4044,7771,0,10,5,0,0.00,0.00,0.00,0.00
2013-08-16 13:20:00,2,8344,10,0.00,2,2,0,2,5940,13574,2403,6973,10,10,0,10,0.00,0.00,0.00,0.00
2013-08-16 13:30:00,2,5743,24,0.14,2,2,0,2,2899,9280,1950,5842,10,61,22,10,0.00,0.85,0.28,0.00
2013-08-16 13:40:00,2,7314,26,0.06,2,2,0,2,4207,9930,1824,7928,10,51,20,10,0.00,0.35,0.12,0.00
2013-08-16 13:50:00,2,11628,10,0.00,2,2,0,2,6416,18829,3994,10288,10,10,0,10,0.00,0.00,0.00,0.00
2013-08-16 14:00:00,2,17252,2,0.00,2,2,0,2,9333,29327,5624,16260,0,10,4,0,0.00,0.00,0.00,0.00
2013-08-16 14:10:00,2,20290,0,0.00,2,2,0,2,9625,37840,8986,18032,0,0,0,0,0.00,0.00,0.00,0.00
2013-08-16 14:20:00,2,24554,0,0.00,2,2,0,2,8318,42777,12381,24477,0,0,0,0,0.00,0.00,0.00,0.00
2013-08-16 14:30:00,2,23343,0,0.00,2,2,0,2,17412,31416,4463,22334,0,0,0,0,0.00,0.00,0.00,0.00
2013-08-16 14:40:00,2,19732,0,0.00,2,2,0,2,9262,25753,5089,20621,0,0,0,0,0.00,0.00,0.00,0.00
2013-08-16 14:50:00,2,20773,0,0.00,2,2,0,2,11611,38131,7921,18389,0,0,0,0,0.00,0.00,0.00,0.00
2013-08-16 15:00:00,2,21894,0,0.00,2,2,0,2,12866,41534,8986,20246,0,0,0,0,0.00,0.00,0.00,0.00
2013-08-16 15:10:00,2,26032,0,0.00,2,2,0,2,8175,50000,16634,19121,0,0,0,0,0.00,0.00,0.00,0.00
2013-08-16 15:20:00,2,20677,0,0.00,2,2,0,2,8700,39325,9540,18321,0,0,0,0,0.00,0.00,0.00,0.00
2013-08-16 15:30:00,2,13525,0,0.00,2,2,0,2,5756,29708,7938,9653,0,0,0,0,0.00,0.00,0.00,0.00
2013-08-16 15:40:00,2,42217,0,0.00,2,2,0,2,29534,50000,6702,43212,0,0,0,0,0.00,0.00,0.00,0.00
2013-08-16 15:50:00,2,48871,0,0.00,2,2,0,2,44681,50000,1755,49816,0,0,0,0,0.00,0.00,0.00,0.00
2013-08-16 16:00:00,2,49710,0,0.00,2,2,0,2,47700,50000,693,50000,0,0,0,0,0.00,0.00,0.00,0.00
2013-08-16 16:10:00,2,32775,0,0.00,2,2,0,2,23956,43852,6718,30515,0,0,0,0,0.00,0.00,0.00,0.00
2013-08-16 16:20:00,2,34508,0,0.00,2,2,0,2,19142,47249,9196,38930,0,0,0,0,0.00,0.00,0.00,0.00
2013-08-16 16:30:00,2,47406,0,0.00,2,2,0,2,42224,50000,3284,49853,0,0,0,0,0.00,0.00,0.00,0.00
2013-08-16 16:40:00,2,47957,0,0.00,2,2,0,2,42841,50000,2618,49388,0,0,0,0,0.00,0.00,0.00,0.00
2013-08-16 16:50:00,2,50000,0,0.00,2,2,0,2,50000,50000,0,50000,0,0,0,0,0.00,0.00,0.00,0.00
2013-08-16 17:00:00,2,49793,0,0.00,2,2,0,2,47932,50000,620,50000,0,0,0,0,0.00,0.00,0.00,0.00
2013-08-16 17:10:00,2,50000,0,0.00,2,2,0,2,50000,50000,0,50000,0,0,0,0,0.00,0.00,0.00,0.00
2013-08-16 17:20:00,2,49590,0,0.00,2,2,0,2,48534,50000,513,49789,0,0,0,0,0.00,0.00,0.00,0.00
2013-08-16 17:30:00,2,49922,0,0.00,2,2,0,2,49215,50000,236,50000,0,0,0,0,0.00,0.00,0.00,0.00
2013-08-16 17:40:00,2,49851,0,0.00,2,2,0,2,49296,50000,268,50000,0,0,0,0,0.00,0.00,0.00,0.00
2013-08-16 17:50:00,2,49575,0,0.00,2,2,0,2,46934,50000,918,49991,0,0,0,0,0.00,0.00,0.00,0.00
2013-08-16 18:00:00,2,44344,0,0.00,2,2,0,2,36610,50000,5574,45575,0,0,0,0,0.00,0.00,0.00,0.00
2013-08-16 18:10:00,2,49853,0,0.00,2,2,0,2,49180,50000,296,50000,0,0,0,0,0.00,0.00,0.00,0.00
2013-08-16 18:20:00,2,48221,0,0.00,2,2,0,2,44319,50000,2000,48840,0,0,0,0,0.00,0.00,0.00,0.00
2013-08-16 18:30:00,2,28009,0,0.00,2,2,0,2,10132,50000,12752,25472,0,0,0,0,0.00,0.00,0.00,0.00
2013-08-16 18:40:00,2,23013,0,0.00,2,2,0,2,6905,37085,8683,24732,0,0,0,0,0.00,0.00,0.00,0.00
2013-08-16 18:50:00,2,20464,0,0.00,2,2,0,2,5806,47586,13670,14862,0,0,0,0,0.00,0.00,0.00,0.00
2013-08-16 19:00:00,2,9730,8,0.00,2,2,0,2,3801,22738,6477,6258,0,10,4,10,0.00,0.00,0.00,0.00
2013-08-16 19:10:00,2,20374,6,0.00,2,2,0,2,10684,42347,9664,15698,0,10,5,10,0.00,0.00,0.00,0.00
2013-08-16 19:20:00,2,10580,38,1.00,2,2,0,2,2431,34379,11599,4488,0,61,25,52,0.00,3.70,1.29,0.12
2013-08-16 19:30:00,2,6154,39,0.90,2,2,0,2,2390,15882,5017,3726,10,52,19,52,0.00,2.60,0.98,0.40
2013-08-16 19:40:00,2,25834,7,0.00,2,2,0,2,4143,49413,17679,27607,0,10,5,10,0.00,0.00,0.00,0.00
2013-08-16 19:50:00,2,21684,8,0.00,2,2,0,2,3156,45853,15680,17432,0,10,4,10,0.00,0.00,0.00,0.00
2013-08-16 20:00:00,2,21070,24,0.49,2,2,0,2,2656,50000,15333,14993,10,61,22,10,0.00,2.55,0.98,0.00
2013-08-16 20:10:00,2,37111,2,0.00,2,2,0,2,21150,50000,9594,37265,0,10,4,0,0.00,0.00,0.00,0.00
2013-08-16 20:20:00,2,18533,0,0.00,2,2,0,2,6499,32412,7144,18746,0,0,0,0,0.00,0.00,0.00,0.00
2013-08-16 20:30:00,2,12082,0,0.00,2,2,0,2,5917,25367,5978,9865,0,0,0,0,0.00,0.00,0.00,0.00
2013-08-16 20:40:00,2,41271,0,0.00,2,2,0,2,11822,50000,12938,47850,0,0,0,0,0.00,0.00,0.00,0.00
2013-08-16 20:50:00,2,48163,0,0.00,2,2,0,2,42302,50000,2567,49492,0,0,0,0,0.00,0.00,0.00,0.00
2013-08-16 21:00:00,2,50000,0,0.00,2,2,0,2,50000,50000,0,50000,0,0,0,0,0.00,0.00,0.00,0.00
2013-08-16 21:10:00,2,50000,0,0.00,2,2,0,2,50000,50000,0,50000,0,0,0,0,0.00,0.00,0.00,0.00
2013-08-16 21:20:00,2,49062,0,0.00,2,2,0,2,43785,50000,1997,50000,0,0,0,0,0.00,0.00,0.00,0.00
2013-08-16 21:30:00,2,49202,0,0.00,2,2,0,2,46589,50000,1256,50000,0,0,0,0,0.00,0.00,0.00,0.00
2013-08-16 21:40:00,2,49092,0,0.00,2,2,0,2,45477,50000,1679,50000,0,0,0,0,0.00,0.00,0.00,0.00
2013-08-16 21:50:00,2,47960,0,0.00,2,2,0,2,39887,50000,3157,49723,0,0,0,0,0.00,0.00,0.00,0.00
2013-08-16 22:00:00,2,49179,0,0.00,2,2,0,2,42802,50000,2144,50000,0,0,0,0,0.00,0.00,0.00,0.00
2013-08-16 22:10:00,2,49697,0,0.00,2,2,0,2,46970,50000,909,50000,0,0,0,0,0.00,0.00,0.00,0.00
2013-08-16 22:20:00,2,47494,0,0.00,2,2,0,2,37282,50000,3953,49822,0,0,0,0,0.00,0.00,0.00,0.00
2013-08-16 22:30:00,2,48584,0,0.00,2,2,0,2,44469,50000,2112,50000,0,0,0,0,0.00,0.00,0.00,0.00
2013-08-16 22:40:00,2,31313,0,0.00,2,2,0,2,4829,50000,20796,44939,0,0,0,0,0.00,0.00,0.00,0.00
2013-08-16 22:50:00,2,6977,29,0.32,2,2,0,2,3155,18172,4074,5795,0,61,27,30,0.00,1.25,0.46,0.07
2013-08-16 23:00:00,2,20143,8,0.74,2,2,0,2,3003,39783,11374,17792,0,52,15,0,0.00,7.45,2.24,0.00
2013-08-16 23:10:00,2,14831,12,0.18,2,2,0,2,4707,32566,11027,9266,0,61,24,0,0.00,1.35,0.42,0.00
2013-08-16 23:20:00,2,15693,21,0.06,2,2,0,2,7652,30489,7711,13330,0,52,20,10,0.00,0.60,0.18,0.00
2013-08-16 23:30:00,2,33414,0,0.00,2,2,0,2,12896,50000,14702,34184,0,0,0,0,0.00,0.00,0.00,0.00
2013-08-16 23:40:00,2,50000,0,0.00,2,2,0,2,50000,50000,0,50000,0,0,0,0,0.00,0.00,0.00,0.00
2013-08-16 23:50:00,2,49822,0,0.00,2,2,0,2,48531,50000,440,50000,0,0,0,0,0.00,0.00,0.00,0.00
